| time (UTC) | temp C | wind direction | speed KPH | gust KPH | rain 1hr cm | rain 24hr cm | rain mn cm | humidity % | barometer mb |
| 20260506232618 | 21 | 253 | 0.0 | 0.0 | 0.00 | 0.15 | 0.15 | 87 | 1007.8 |
| 20260506232114 | 21 | 245 | 0.0 | 0.0 | 0.00 | 0.15 | 0.15 | 87 | 1008.0 |
| 20260506231611 | 21 | 243 | 0.0 | 0.0 | 0.00 | 0.15 | 0.15 | 87 | 1007.7 |
| 20260506231110 | 21 | 243 | 1.6 | 1.6 | 0.00 | 0.15 | 0.15 | 85 | 1007.9 |
| 20260506230606 | 21 | 273 | 0.0 | 0.0 | 0.00 | 0.15 | 0.15 | 83 | 1007.7 |
| 20260506230103 | 21 | 254 | 0.0 | 1.6 | 0.00 | 0.15 | 0.15 | 83 | 1007.8 |
| 20260506225559 | 21 | 207 | 0.0 | 0.0 | 0.00 | 0.15 | 0.15 | 82 | 1007.9 |
| 20260506225056 | 22 | 207 | 0.0 | 0.0 | 0.00 | 0.15 | 0.15 | 82 | 1008.2 |
| 20260506224553 | 22 | 261 | 0.0 | 1.6 | 0.00 | 0.15 | 0.15 | 82 | 1008.3 |
| 20260506224050 | 22 | 231 | 0.0 | 1.6 | 0.00 | 0.15 | 0.15 | 82 | 1008.6 |
| 20260506223545 | 22 | 238 | 0.0 | 0.0 | 0.00 | 0.15 | 0.15 | 81 | 1008.4 |
| 20260506223042 | 22 | 234 | 0.0 | 0.0 | 0.00 | 0.15 | 0.15 | 80 | 1008.3 |
| 20260506222539 | 22 | 248 | 1.6 | 1.6 | 0.00 | 0.15 | 0.15 | 80 | 1008.2 |
| 20260506222035 | 22 | 256 | 0.0 | 0.0 | 0.00 | 0.15 | 0.15 | 80 | 1008.4 |
| 20260506221533 | 22 | 222 | 0.0 | 0.0 | 0.00 | 0.15 | 0.15 | 80 | 1008.4 |
| 20260506221031 | 22 | 231 | 0.0 | 0.0 | 0.00 | 0.15 | 0.15 | 79 | 1008.3 |
| 20260506220526 | 22 | 184 | 1.6 | 1.6 | 0.00 | 0.15 | 0.15 | 79 | 1008.3 |
| 20260506220022 | 22 | 248 | 1.6 | 1.6 | 0.00 | 0.15 | 0.15 | 79 | 1008.7 |
| 20260506215519 | 22 | 215 | 1.6 | 1.6 | 0.00 | 0.15 | 0.15 | 79 | 1008.3 |
| 20260506215015 | 22 | 220 | 1.6 | 1.6 | 0.00 | 0.15 | 0.15 | 78 | 1008.3 |
| 20260506214512 | 22 | 237 | 1.6 | 3.2 | 0.00 | 0.15 | 0.15 | 78 | 1008.4 |
| 20260506214009 | 22 | 230 | 1.6 | 1.6 | 0.00 | 0.15 | 0.15 | 78 | 1008.3 |
| 20260506213508 | 22 | 204 | 1.6 | 1.6 | 0.00 | 0.15 | 0.15 | 79 | 1008.4 |
| 20260506213004 | 22 | 228 | 3.2 | 3.2 | 0.00 | 0.15 | 0.15 | 78 | 1008.3 |
| 20260506212500 | 22 | 240 | 1.6 | 3.2 | 0.00 | 0.15 | 0.15 | 79 | 1008.0 |
| 20260506211955 | 22 | 227 | 1.6 | 1.6 | 0.00 | 0.15 | 0.15 | 78 | 1007.9 |
| 20260506211451 | 22 | 275 | 0.0 | 0.0 | 0.00 | 0.15 | 0.15 | 79 | 1007.6 |
| 20260506210949 | 22 | 243 | 1.6 | 1.6 | 0.00 | 0.15 | 0.15 | 78 | 1007.9 |
| 20260506210445 | 22 | 242 | 1.6 | 1.6 | 0.00 | 0.15 | 0.15 | 78 | 1007.9 |
| 20260506205942 | 22 | 248 | 4.8 | 4.8 | 0.00 | 0.15 | 0.15 | 77 | 1007.9 |
| 20260506205438 | 22 | 233 | 1.6 | 3.2 | 0.00 | 0.15 | 0.15 | 78 | 1007.8 |
| 20260506204934 | 22 | 220 | 4.8 | 4.8 | 0.00 | 0.15 | 0.15 | 79 | 1008.1 |
| 20260506204433 | 22 | 226 | 3.2 | 3.2 | 0.00 | 0.15 | 0.15 | 79 | 1008.2 |
| 20260506203930 | 22 | 253 | 1.6 | 3.2 | 0.00 | 0.15 | 0.15 | 78 | 1008.4 |
| 20260506203427 | 22 | 277 | 3.2 | 3.2 | 0.00 | 0.15 | 0.15 | 76 | 1008.3 |
| 20260506202924 | 22 | 264 | 3.2 | 3.2 | 0.00 | 0.15 | 0.15 | 76 | 1008.5 |
| 20260506202421 | 22 | 266 | 1.6 | 1.6 | 0.00 | 0.15 | 0.15 | 78 | 1008.7 |
| 20260506201917 | 22 | 210 | 4.8 | 8.0 | 0.00 | 0.15 | 0.15 | 78 | 1008.6 |
| 20260506201415 | 22 | 302 | 1.6 | 1.6 | 0.00 | 0.15 | 0.15 | 76 | 1008.3 |
| 20260506200911 | 22 | 257 | 1.6 | 1.6 | 0.00 | 0.15 | 0.15 | 77 | 1008.6 |
| 20260506200407 | 22 | 250 | 4.8 | 4.8 | 0.00 | 0.15 | 0.15 | 78 | 1008.5 |
| 20260506195904 | 21 | 253 | 1.6 | 1.6 | 0.00 | 0.15 | 0.15 | 79 | 1008.4 |
| 20260506195401 | 21 | 231 | 4.8 | 8.0 | 0.00 | 0.15 | 0.15 | 80 | 1008.5 |
| 20260506194858 | 21 | 254 | 3.2 | 3.2 | 0.00 | 0.15 | 0.15 | 80 | 1008.5 |
| 20260506194355 | 21 | 244 | 1.6 | 1.6 | 0.00 | 0.15 | 0.15 | 84 | 1008.3 |
| 20260506193852 | 21 | 270 | 1.6 | 3.2 | 0.00 | 0.15 | 0.15 | 82 | 1008.2 |
| 20260506193349 | 21 | 218 | 4.8 | 8.0 | 0.00 | 0.15 | 0.15 | 82 | 1008.4 |
| 20260506192845 | 21 | 246 | 3.2 | 3.2 | 0.00 | 0.15 | 0.15 | 84 | 1009.0 |
| 20260506192342 | 20 | 255 | 1.6 | 3.2 | 0.00 | 0.15 | 0.15 | 85 | 1008.6 |
| 20260506191839 | 20 | 230 | 3.2 | 3.2 | 0.00 | 0.15 | 0.15 | 86 | 1008.8 |
| 20260506191335 | 20 | 233 | 3.2 | 4.8 | 0.00 | 0.15 | 0.15 | 87 | 1008.6 |
| 20260506190832 | 20 | 224 | 3.2 | 4.8 | 0.00 | 0.15 | 0.15 | 86 | 1008.4 |
| 20260506190328 | 20 | 237 | 1.6 | 8.0 | 0.00 | 0.15 | 0.15 | 89 | 1008.6 |
| 20260506185826 | 19 | 256 | 1.6 | 1.6 | 0.00 | 0.15 | 0.15 | 89 | 1008.9 |
| 20260506185323 | 19 | 242 | 3.2 | 4.8 | 0.00 | 0.15 | 0.15 | 91 | 1008.6 |
| 20260506184820 | 19 | 265 | 1.6 | 1.6 | 0.00 | 0.15 | 0.15 | 90 | 1008.8 |
| 20260506184317 | 18 | 244 | 0.0 | 1.6 | 0.00 | 0.15 | 0.15 | 91 | 1009.0 |
| 20260506183814 | 18 | 223 | 1.6 | 3.2 | 0.00 | 0.15 | 0.15 | 90 | 1008.9 |
| 20260506183309 | 18 | 232 | 3.2 | 3.2 | 0.00 | 0.15 | 0.15 | 91 | 1009.0 |
| 20260506182807 | 18 | 241 | 1.6 | 1.6 | 0.00 | 0.15 | 0.15 | 92 | 1009.3 |
| 20260506182306 | 18 | 231 | 1.6 | 1.6 | 0.00 | 0.15 | 0.15 | 93 | 1009.3 |
| 20260506181801 | 18 | 269 | 1.6 | 1.6 | 0.00 | 0.15 | 0.15 | 94 | 1008.9 |
| 20260506181259 | 18 | 248 | 1.6 | 1.6 | 0.00 | 0.15 | 0.15 | 94 | 1008.8 |
| 20260506180756 | 18 | 215 | 1.6 | 3.2 | 0.00 | 0.15 | 0.15 | 93 | 1008.6 |
| 20260506180252 | 18 | 175 | 1.6 | 1.6 | 0.00 | 0.15 | 0.15 | 94 | 1008.8 |
| 20260506175748 | 18 | 244 | 0.0 | 1.6 | 0.00 | 0.15 | 0.15 | 95 | 1009.1 |
| 20260506175245 | 17 | 147 | 1.6 | 1.6 | 0.00 | 0.15 | 0.15 | 96 | 1009.7 |
| 20260506174743 | 17 | 243 | 1.6 | 1.6 | 0.00 | 0.15 | 0.15 | 95 | 1010.2 |
| 20260506174239 | 17 | 227 | 1.6 | 3.2 | 0.00 | 0.15 | 0.15 | 95 | 1010.7 |
| 20260506173737 | 17 | 224 | 1.6 | 1.6 | 0.00 | 0.15 | 0.15 | 95 | 1010.7 |
| 20260506173234 | 17 | 247 | 0.0 | 0.0 | 0.18 | 0.15 | 0.15 | 94 | 1010.7 |
| 20260506172731 | 17 | 244 | 0.0 | 0.0 | 0.18 | 0.15 | 0.15 | 94 | 1010.4 |
| 20260506172227 | 17 | 232 | 1.6 | 1.6 | 0.00 | 0.13 | 0.13 | 93 | 1010.7 |
| 20260506171725 | 17 | 229 | 0.0 | 1.6 | 0.13 | 0.13 | 0.13 | 91 | 1010.7 |
| 20260506171222 | 18 | 256 | 0.0 | 1.6 | 0.71 | 0.13 | 0.13 | 89 | 1010.9 |
| 20260506170719 | 19 | 238 | 1.6 | 1.6 | 0.61 | 0.10 | 0.10 | 85 | 1010.7 |
| 20260506170216 | 20 | 229 | 3.2 | 3.2 | 0.00 | 0.00 | 0.00 | 81 | 1011.2 |
| 20260506165715 | 20 | 243 | 0.0 | 1.6 | 0.00 | 0.00 | 0.00 | 77 | 1010.6 |
| 20260506165211 | 20 | 232 | 1.6 | 3.2 | 0.00 | 0.00 | 0.00 | 75 | 1010.3 |
| 20260506164708 | 21 | 237 | 1.6 | 1.6 | 0.00 | 0.00 | 0.00 | 74 | 1010.5 |
| 20260506164205 | 21 | 230 | 1.6 | 1.6 | 0.00 | 0.00 | 0.00 | 72 | 1010.4 |
| 20260506163702 | 21 | 246 | 0.0 | 1.6 | 0.00 | 0.00 | 0.00 | 71 | 1010.4 |
| 20260506163157 | 21 | 230 | 0.0 | 1.6 | 0.00 | 0.00 | 0.00 | 73 | 1010.6 |
| 20260506162653 | 21 | 249 | 1.6 | 1.6 | 0.00 | 0.00 | 0.00 | 71 | 1010.4 |
| 20260506162151 | 21 | 251 | 1.6 | 1.6 | 0.00 | 0.00 | 0.00 | 69 | 1010.3 |
| 20260506161648 | 21 | 224 | 1.6 | 1.6 | 0.00 | 0.00 | 0.00 | 71 | 1010.4 |
| 20260506161144 | 21 | 252 | 1.6 | 1.6 | 0.00 | 0.00 | 0.00 | 69 | 1010.6 |
| 20260506160642 | 21 | 268 | 1.6 | 1.6 | 0.00 | 0.00 | 0.00 | 71 | 1010.5 |
| 20260506160139 | 21 | 272 | 1.6 | 1.6 | 0.00 | 0.00 | 0.00 | 72 | 1010.3 |
| 20260506155638 | 20 | 247 | 0.0 | 0.0 | 0.00 | 0.00 | 0.00 | 73 | 1010.3 |
| 20260506155134 | 20 | 248 | 0.0 | 0.0 | 0.00 | 0.00 | 0.00 | 77 | 1009.9 |
| 20260506153236 | 20 | 270 | 0.0 | 0.0 | 0.00 | 0.00 | 0.00 | 77 | 1009.9 |
| 20260506152733 | 19 | 254 | 1.6 | 1.6 | 0.00 | 0.00 | 0.00 | 77 | 1009.4 |
| 20260506152230 | 19 | 236 | 1.6 | 1.6 | 0.00 | 0.00 | 0.00 | 78 | 1009.4 |
| 20260506151730 | 19 | 237 | 1.6 | 1.6 | 0.00 | 0.00 | 0.00 | 78 | 1009.3 |
| 20260506151226 | 19 | 250 | 0.0 | 0.0 | 0.00 | 0.00 | 0.00 | 78 | 1009.6 |
| 20260506150722 | 19 | 260 | 0.0 | 0.0 | 0.00 | 0.00 | 0.00 | 77 | 1009.4 |
| 20260506150219 | 19 | 249 | 0.0 | 0.0 | 0.00 | 0.00 | 0.00 | 77 | 1009.6 |
| 20260506145717 | 18 | 250 | 1.6 | 1.6 | 0.00 | 0.00 | 0.00 | 77 | 1009.7 |
| 20260506145213 | 18 | 254 | 1.6 | 1.6 | 0.00 | 0.00 | 0.00 | 78 | 1009.8 |
| 20260506144710 | 18 | 237 | 0.0 | 0.0 | 0.00 | 0.00 | 0.00 | 78 | 1009.7 |
| 20260506144207 | 18 | 239 | 1.6 | 1.6 | 0.00 | 0.00 | 0.00 | 77 | 1009.8 |
| 20260506143705 | 18 | 240 | 1.6 | 1.6 | 0.00 | 0.00 | 0.00 | 79 | 1010.0 |
| 20260506143202 | 18 | 242 | 0.0 | 0.0 | 0.00 | 0.00 | 0.00 | 79 | 1009.9 |
| 20260506142701 | 18 | 237 | 1.6 | 1.6 | 0.00 | 0.00 | 0.00 | 79 | 1010.2 |
| 20260506142158 | 18 | 237 | 0.0 | 1.6 | 0.00 | 0.00 | 0.00 | 78 | 1010.0 |
| 20260506141656 | 18 | 239 | 1.6 | 3.2 | 0.00 | 0.00 | 0.00 | 78 | 1010.0 |
| 20260506141154 | 18 | 239 | 1.6 | 1.6 | 0.00 | 0.00 | 0.00 | 77 | 1009.9 |
| 20260506140651 | 18 | 242 | 0.0 | 0.0 | 0.00 | 0.00 | 0.00 | 77 | 1010.0 |
| 20260506140148 | 18 | 241 | 0.0 | 1.6 | 0.00 | 0.00 | 0.00 | 76 | 1009.8 |
| 20260506135645 | 18 | 238 | 1.6 | 1.6 | 0.00 | 0.00 | 0.00 | 76 | 1009.9 |
| 20260506135141 | 18 | 259 | 0.0 | 0.0 | 0.00 | 0.00 | 0.00 | 76 | 1009.9 |
| 20260506134638 | 18 | 261 | 0.0 | 0.0 | 0.00 | 0.00 | 0.00 | 76 | 1009.7 |
| 20260506134134 | 18 | 289 | 3.2 | 3.2 | 0.00 | 0.00 | 0.00 | 76 | 1009.7 |
| 20260506133631 | 17 | 229 | 1.6 | 3.2 | 0.00 | 0.00 | 0.00 | 77 | 1009.5 |
| 20260506133128 | 17 | 248 | 1.6 | 1.6 | 0.00 | 0.00 | 0.00 | 76 | 1009.8 |
| 20260506132625 | 17 | 231 | 3.2 | 3.2 | 0.00 | 0.00 | 0.00 | 77 | 1009.8 |
| 20260506132122 | 17 | 254 | 0.0 | 1.6 | 0.00 | 0.00 | 0.00 | 78 | 1009.8 |
| 20260506131620 | 17 | 261 | 1.6 | 1.6 | 0.00 | 0.00 | 0.00 | 77 | 1010.0 |
| 20260506131116 | 17 | 281 | 1.6 | 1.6 | 0.00 | 0.00 | 0.00 | 77 | 1009.5 |
| 20260506130613 | 17 | 243 | 1.6 | 3.2 | 0.00 | 0.00 | 0.00 | 76 | 1009.6 |
| 20260506130110 | 17 | 248 | 3.2 | 3.2 | 0.00 | 0.00 | 0.00 | 76 | 1009.6 |
| 20260506125609 | 17 | 228 | 3.2 | 3.2 | 0.00 | 0.00 | 0.00 | 77 | 1009.2 |
| 20260506125106 | 17 | 233 | 1.6 | 1.6 | 0.00 | 0.00 | 0.00 | 78 | 1009.5 |
| 20260506124604 | 17 | 242 | 1.6 | 1.6 | 0.00 | 0.00 | 0.00 | 77 | 1009.6 |
| 20260506124101 | 17 | 244 | 1.6 | 3.2 | 0.00 | 0.00 | 0.00 | 77 | 1009.8 |
| 20260506123559 | 17 | 216 | 3.2 | 3.2 | 0.00 | 0.00 | 0.00 | 77 | 1009.8 |
| 20260506123057 | 17 | 246 | 0.0 | 0.0 | 0.00 | 0.00 | 0.00 | 77 | 1010.1 |
| 20260506122553 | 17 | 237 | 0.0 | 0.0 | 0.00 | 0.00 | 0.00 | 78 | 1010.2 |
| 20260506122051 | 17 | 234 | 0.0 | 1.6 | 0.00 | 0.00 | 0.00 | 77 | 1010.2 |
| 20260506121548 | 17 | 250 | 1.6 | 1.6 | 0.00 | 0.00 | 0.00 | 77 | 1010.3 |
| 20260506121045 | 17 | 241 | 3.2 | 3.2 | 0.00 | 0.00 | 0.00 | 78 | 1010.4 |
| 20260506120543 | 17 | 235 | 1.6 | 3.2 | 0.00 | 0.00 | 0.00 | 78 | 1010.3 |
| 20260506120040 | 17 | 247 | 1.6 | 1.6 | 0.00 | 0.00 | 0.00 | 78 | 1010.5 |
| 20260506115538 | 17 | 251 | 1.6 | 1.6 | 0.00 | 0.00 | 0.00 | 77 | 1010.2 |
| 20260506115036 | 16 | 238 | 3.2 | 3.2 | 0.00 | 0.00 | 0.00 | 78 | 1010.1 |
| 20260506114533 | 16 | 237 | 1.6 | 1.6 | 0.00 | 0.00 | 0.00 | 78 | 1010.1 |
| 20260506114032 | 16 | 238 | 1.6 | 1.6 | 0.00 | 0.00 | 0.00 | 78 | 1010.0 |
| 20260506113529 | 16 | 224 | 1.6 | 1.6 | 0.00 | 0.00 | 0.00 | 79 | 1010.2 |
| 20260506113026 | 16 | 233 | 3.2 | 3.2 | 0.00 | 0.00 | 0.00 | 78 | 1010.0 |
| 20260506112523 | 16 | 232 | 1.6 | 1.6 | 0.00 | 0.00 | 0.00 | 78 | 1010.2 |
| 20260506112020 | 16 | 231 | 3.2 | 3.2 | 0.00 | 0.00 | 0.00 | 79 | 1010.0 |
| 20260506111518 | 16 | 233 | 1.6 | 1.6 | 0.00 | 0.00 | 0.00 | 79 | 1009.9 |
| 20260506111015 | 16 | 243 | 1.6 | 1.6 | 0.00 | 0.00 | 0.00 | 81 | 1009.8 |
| 20260506110512 | 16 | 238 | 1.6 | 1.6 | 0.00 | 0.00 | 0.00 | 81 | 1009.8 |
| 20260506110009 | 16 | 238 | 0.0 | 0.0 | 0.00 | 0.00 | 0.00 | 82 | 1009.5 |
| 20260506105505 | 16 | 253 | 0.0 | 0.0 | 0.00 | 0.00 | 0.00 | 82 | 1009.6 |
| 20260506105003 | 15 | 239 | 0.0 | 0.0 | 0.00 | 0.00 | 0.00 | 82 | 1009.2 |
| 20260506104501 | 15 | 243 | 0.0 | 0.0 | 0.00 | 0.00 | 0.00 | 82 | 1009.1 |
| 20260506103959 | 15 | 227 | 0.0 | 0.0 | 0.00 | 0.00 | 0.00 | 81 | 1009.3 |
| 20260506103455 | 15 | 234 | 0.0 | 0.0 | 0.00 | 0.00 | 0.00 | 82 | 1008.9 |
| 20260506102952 | 15 | 236 | 0.0 | 0.0 | 0.00 | 0.00 | 0.00 | 81 | 1009.0 |
| 20260506102450 | 15 | 258 | 0.0 | 0.0 | 0.00 | 0.00 | 0.00 | 81 | 1008.8 |
| 20260506101947 | 15 | 252 | 0.0 | 0.0 | 0.00 | 0.00 | 0.00 | 82 | 1008.9 |
| 20260506101444 | 15 | 254 | 0.0 | 1.6 | 0.00 | 0.00 | 0.00 | 81 | 1008.9 |
| 20260506100941 | 15 | 239 | 0.0 | 0.0 | 0.00 | 0.00 | 0.00 | 80 | 1009.2 |
| 20260506100440 | 15 | 240 | 0.0 | 0.0 | 0.00 | 0.00 | 0.00 | 82 | 1009.1 |
| 20260506095937 | 16 | 249 | 0.0 | 0.0 | 0.00 | 0.00 | 0.00 | 81 | 1008.8 |
| 20260506095436 | 16 | 236 | 0.0 | 0.0 | 0.00 | 0.00 | 0.00 | 79 | 1009.2 |
| 20260506094931 | 16 | 235 | 0.0 | 0.0 | 0.00 | 0.00 | 0.00 | 81 | 1008.9 |
| 20260506094430 | 16 | 233 | 1.6 | 1.6 | 0.00 | 0.00 | 0.00 | 80 | 1009.2 |
| 20260506093927 | 16 | 260 | 1.6 | 1.6 | 0.00 | 0.00 | 0.00 | 79 | 1009.2 |
| 20260506093425 | 16 | 257 | 1.6 | 1.6 | 0.00 | 0.00 | 0.00 | 78 | 1009.3 |
| 20260506092923 | 16 | 233 | 0.0 | 0.0 | 0.00 | 0.00 | 0.00 | 78 | 1009.1 |
| 20260506092420 | 16 | 246 | 1.6 | 1.6 | 0.00 | 0.00 | 0.00 | 79 | 1009.2 |
| 20260506091916 | 16 | 228 | 0.0 | 1.6 | 0.00 | 0.00 | 0.00 | 78 | 1009.3 |
| 20260506091415 | 16 | 232 | 0.0 | 0.0 | 0.00 | 0.00 | 0.00 | 77 | 1009.3 |
| 20260506090911 | 16 | 232 | 0.0 | 0.0 | 0.00 | 0.00 | 0.00 | 76 | 1009.5 |
| 20260506090410 | 16 | 239 | 3.2 | 3.2 | 0.00 | 0.00 | 0.00 | 77 | 1009.3 |
| 20260506085906 | 16 | 219 | 0.0 | 1.6 | 0.00 | 0.00 | 0.00 | 77 | 1009.3 |
| 20260506085403 | 16 | 220 | 0.0 | 0.0 | 0.00 | 0.00 | 0.00 | 77 | 1009.7 |
| 20260506084859 | 16 | 211 | 1.6 | 1.6 | 0.00 | 0.00 | 0.00 | 77 | 1009.8 |
| 20260506084355 | 16 | 220 | 3.2 | 3.2 | 0.00 | 0.00 | 0.00 | 77 | 1009.7 |
| 20260506083852 | 16 | 236 | 1.6 | 1.6 | 0.00 | 0.00 | 0.00 | 78 | 1009.7 |
| 20260506083350 | 16 | 230 | 0.0 | 0.0 | 0.00 | 0.00 | 0.00 | 78 | 1009.6 |
| 20260506082847 | 16 | 240 | 0.0 | 0.0 | 0.00 | 0.00 | 0.00 | 79 | 1009.9 |
| 20260506082344 | 16 | 233 | 0.0 | 0.0 | 0.00 | 0.00 | 0.00 | 77 | 1009.8 |
| 20260506081839 | 17 | 234 | 0.0 | 0.0 | 0.00 | 0.00 | 0.00 | 78 | 1009.6 |
| 20260506081338 | 17 | 257 | 1.6 | 1.6 | 0.00 | 0.00 | 0.00 | 78 | 1010.0 |
| 20260506080835 | 17 | 251 | 0.0 | 0.0 | 0.00 | 0.00 | 0.00 | 78 | 1009.7 |
| 20260506080331 | 17 | 248 | 1.6 | 1.6 | 0.00 | 0.00 | 0.00 | 76 | 1009.7 |
| 20260506073316 | 17 | 248 | 0.0 | 0.0 | 0.00 | 0.00 | 0.00 | 77 | 1009.8 |
| 20260506072812 | 17 | 225 | 1.6 | 1.6 | 0.00 | 0.00 | 0.00 | 78 | 1010.0 |
| 20260506072310 | 16 | 228 | 0.0 | 0.0 | 0.00 | 0.00 | 0.00 | 78 | 1010.0 |
| 20260506071808 | 16 | 262 | 1.6 | 1.6 | 0.00 | 0.00 | 0.00 | 78 | 1009.9 |
| 20260506071306 | 17 | 260 | 0.0 | 1.6 | 0.00 | 0.00 | 0.00 | 79 | 1009.7 |
| 20260506070802 | 17 | 255 | 0.0 | 0.0 | 0.00 | 0.00 | 0.00 | 78 | 1009.5 |
| 20260506070259 | 17 | 225 | 0.0 | 0.0 | 0.00 | 0.00 | 0.00 | 76 | 1009.2 |
| 20260506062236 | 17 | 242 | 0.0 | 0.0 | 0.00 | 0.00 | 0.00 | 75 | 1010.0 |
| 20260506061726 | 17 | 239 | 1.6 | 1.6 | 0.00 | 0.00 | 0.00 | 76 | 1010.0 |
| 20260506061224 | 17 | 241 | 1.6 | 1.6 | 0.00 | 0.00 | 0.00 | 76 | 1009.9 |
| 20260506060723 | 17 | 228 | 0.0 | 0.0 | 0.00 | 0.00 | 0.00 | 76 | 1010.1 |
| 20260506060219 | 17 | 253 | 0.0 | 0.0 | 0.00 | 0.00 | 0.00 | 74 | 1010.2 |
| 20260506051145 | 18 | 258 | 0.0 | 1.6 | 0.00 | 0.00 | 0.00 | 72 | 1010.1 |
| 20260506050644 | 18 | 229 | 1.6 | 3.2 | 0.00 | 0.00 | 0.00 | 70 | 1009.9 |
| 20260506050140 | 18 | 248 | 1.6 | 1.6 | 0.00 | 0.00 | 0.00 | 69 | 1010.0 |
| 20260506045133 | 18 | 236 | 3.2 | 3.2 | 0.00 | 0.00 | 0.00 | 69 | 1010.1 |
| 20260506044631 | 18 | 219 | 3.2 | 3.2 | 0.00 | 0.00 | 0.00 | 68 | 1010.3 |
| 20260506044128 | 18 | 206 | 4.8 | 4.8 | 0.00 | 0.00 | 0.00 | 69 | 1010.4 |
| 20260506043625 | 18 | 242 | 1.6 | 1.6 | 0.00 | 0.00 | 0.00 | 68 | 1010.1 |
| 20260506043124 | 17 | 231 | 3.2 | 4.8 | 0.00 | 0.00 | 0.00 | 70 | 1010.5 |
| 20260506042622 | 17 | 192 | 0.0 | 1.6 | 0.00 | 0.00 | 0.00 | 72 | 1010.1 |
| 20260506042120 | 17 | 255 | 0.0 | 0.0 | 0.00 | 0.00 | 0.00 | 73 | 1010.0 |
| 20260506041618 | 17 | 234 | 1.6 | 1.6 | 0.00 | 0.00 | 0.00 | 73 | 1009.9 |
| 20260506041114 | 17 | 247 | 0.0 | 0.0 | 0.00 | 0.00 | 0.00 | 72 | 1009.9 |
| 20260506040612 | 17 | 254 | 0.0 | 0.0 | 0.00 | 0.00 | 0.00 | 73 | 1010.0 |
| 20260506040109 | 17 | 224 | 0.0 | 0.0 | 0.00 | 0.00 | 0.00 | 72 | 1009.9 |
| 20260506035606 | 17 | 243 | 0.0 | 0.0 | 0.00 | 0.00 | 0.00 | 72 | 1010.0 |
| 20260506035102 | 16 | 248 | 0.0 | 1.6 | 0.00 | 0.00 | 0.00 | 73 | 1009.8 |
| 20260506034600 | 16 | 236 | 1.6 | 1.6 | 0.00 | 0.00 | 0.00 | 75 | 1010.0 |
| 20260506034056 | 15 | 280 | 1.6 | 1.6 | 0.00 | 0.00 | 0.00 | 76 | 1010.0 |
| 20260506033554 | 15 | 254 | 0.0 | 1.6 | 0.00 | 0.00 | 0.00 | 76 | 1010.0 |
| 20260506033050 | 15 | 259 | 0.0 | 0.0 | 0.00 | 0.00 | 0.00 | 78 | 1009.8 |
| 20260506032548 | 15 | 254 | 0.0 | 0.0 | 0.00 | 0.00 | 0.00 | 79 | 1009.8 |
| 20260506032045 | 15 | 254 | 0.0 | 0.0 | 0.00 | 0.00 | 0.00 | 79 | 1009.8 |
| 20260506031542 | 15 | 254 | 0.0 | 0.0 | 0.00 | 0.00 | 0.00 | 79 | 1009.8 |
| 20260506031039 | 15 | 254 | 0.0 | 0.0 | 0.00 | 0.00 | 0.00 | 79 | 1009.8 |
| 20260506030537 | 15 | 254 | 0.0 | 0.0 | 0.00 | 0.00 | 0.00 | 79 | 1009.7 |
| 20260506030034 | 15 | 255 | 0.0 | 0.0 | 0.00 | 0.00 | 0.00 | 79 | 1009.9 |
| 20260506025531 | 15 | 254 | 0.0 | 0.0 | 0.00 | 0.00 | 0.00 | 79 | 1010.1 |
| 20260506025027 | 15 | 254 | 0.0 | 0.0 | 0.00 | 0.00 | 0.00 | 79 | 1010.0 |
| 20260506024524 | 15 | 254 | 0.0 | 0.0 | 0.00 | 0.00 | 0.00 | 79 | 1009.8 |
| 20260506024020 | 15 | 254 | 0.0 | 0.0 | 0.00 | 0.00 | 0.00 | 78 | 1010.0 |
| 20260506023517 | 15 | 254 | 0.0 | 0.0 | 0.00 | 0.00 | 0.00 | 78 | 1010.1 |
| 20260506023015 | 15 | 254 | 0.0 | 0.0 | 0.00 | 0.00 | 0.00 | 77 | 1010.0 |
| 20260506022512 | 15 | 254 | 0.0 | 0.0 | 0.00 | 0.00 | 0.00 | 77 | 1010.4 |
| 20260506022009 | 15 | 254 | 0.0 | 0.0 | 0.00 | 0.00 | 0.00 | 76 | 1010.4 |
| 20260506021507 | 15 | 254 | 0.0 | 0.0 | 0.00 | 0.00 | 0.00 | 76 | 1010.3 |
| 20260506021004 | 15 | 254 | 0.0 | 0.0 | 0.00 | 0.00 | 0.00 | 76 | 1010.2 |
| 20260506020501 | 15 | 254 | 0.0 | 0.0 | 0.00 | 0.00 | 0.00 | 75 | 1010.1 |
| 20260506015957 | 15 | 254 | 0.0 | 0.0 | 0.00 | 0.00 | 0.00 | 74 | 1010.2 |
| 20260506015455 | 16 | 254 | 0.0 | 0.0 | 0.00 | 0.00 | 0.00 | 74 | 1010.3 |
| 20260506014952 | 16 | 254 | 0.0 | 0.0 | 0.00 | 0.00 | 0.00 | 73 | 1010.2 |
| 20260506014449 | 16 | 253 | 0.0 | 0.0 | 0.00 | 0.00 | 0.00 | 73 | 1009.9 |
| 20260506013945 | 16 | 253 | 0.0 | 0.0 | 0.00 | 0.00 | 0.00 | 72 | 1010.0 |
| 20260506013444 | 16 | 253 | 0.0 | 0.0 | 0.00 | 0.00 | 0.00 | 72 | 1009.9 |
| 20260506012939 | 16 | 254 | 0.0 | 0.0 | 0.00 | 0.00 | 0.00 | 70 | 1010.0 |
| 20260506012436 | 17 | 254 | 0.0 | 0.0 | 0.00 | 0.00 | 0.00 | 69 | 1009.9 |
| 20260506011933 | 17 | 254 | 0.0 | 0.0 | 0.00 | 0.00 | 0.00 | 68 | 1009.9 |
| 20260506011431 | 17 | 253 | 0.0 | 0.0 | 0.00 | 0.00 | 0.00 | 66 | 1009.9 |
| 20260506010927 | 17 | 253 | 0.0 | 0.0 | 0.00 | 0.00 | 0.00 | 65 | 1010.0 |
| 20260506010426 | 17 | 254 | 0.0 | 0.0 | 0.00 | 0.00 | 0.00 | 65 | 1009.9 |
| 20260506005922 | 18 | 254 | 0.0 | 0.0 | 0.00 | 0.00 | 0.00 | 66 | 1009.8 |
| 20260506005420 | 18 | 238 | 0.0 | 0.0 | 0.00 | 0.00 | 0.00 | 62 | 1009.9 |
| 20260506004915 | 18 | 238 | 0.0 | 0.0 | 0.00 | 0.00 | 0.00 | 61 | 1009.6 |
| 20260506004413 | 18 | 238 | 0.0 | 0.0 | 0.00 | 0.00 | 0.00 | 59 | 1009.6 |
| 20260506003909 | 19 | 238 | 0.0 | 0.0 | 0.00 | 0.00 | 0.00 | 58 | 1009.5 |
| 20260506003405 | 20 | 238 | 0.0 | 0.0 | 0.00 | 0.00 | 0.00 | 55 | 1009.5 |
| 20260506002902 | 20 | 238 | 0.0 | 0.0 | 0.00 | 0.00 | 0.00 | 54 | 1009.4 |
| 20260506002358 | 20 | 238 | 0.0 | 0.0 | 0.00 | 0.00 | 0.00 | 52 | 1009.4 |
| 20260506001854 | 21 | 238 | 0.0 | 0.0 | 0.00 | 0.00 | 0.00 | 51 | 1009.6 |
| 20260506001351 | 21 | 219 | 0.0 | 1.6 | 0.00 | 0.00 | 0.00 | 51 | 1009.3 |
| 20260506000848 | 21 | 246 | 0.0 | 0.0 | 0.00 | 0.00 | 0.00 | 50 | 1009.6 |
| 20260506000346 | 21 | 246 | 0.0 | 0.0 | 0.00 | 0.00 | 0.00 | 50 | 1009.4 |
| 20260505235842 | 22 | 268 | 0.0 | 0.0 | 0.00 | 0.00 | 0.00 | 49 | 1009.3 |
| 20260505235340 | 22 | 225 | 0.0 | 0.0 | 0.00 | 0.00 | 0.00 | 49 | 1009.4 |
| 20260505234837 | 22 | 262 | 0.0 | 0.0 | 0.00 | 0.00 | 0.00 | 48 | 1009.4 |
| 20260505234335 | 22 | 262 | 0.0 | 0.0 | 0.00 | 0.00 | 0.00 | 48 | 1009.2 |
| 20260505233831 | 22 | 260 | 0.0 | 0.0 | 0.00 | 0.00 | 0.00 | 48 | 1009.1 |
| 20260505233329 | 22 | 220 | 0.0 | 1.6 | 0.00 | 0.00 | 0.00 | 47 | 1009.2 |